www.pogodaiklimat.ru

Погода и климат >> Архив погоды >> Россия >> Чукотка >> Комсомольская


ПОГОДА в Комсомольской

  • Прогноз погоды в Комсомольской
  • Монитор погоды в Комсомольской

АРХИВ ПОГОДЫ в Комсомольской

Время (UTC), дата Ветер
(напр.,м/с)
 
Видим.   Явления Облачность Т
(С)
Тd
(С)
f
(%)
Тe
(С)
Тes
(С)
Комфортность P
(гПа)
Po
(гПа)
Тmin
(С)
Tmax
(С)
R
(мм)
R24
(мм)
S
(см)
09 13.06 З 2 н/о н/о +22.2 +3.4 29 +22 +22 комфорт 1009.1 984.0 +25.4
12 13.06 СВ 4 н/о н/о +16.4 +4.4 45 +16 +16 1010.0 984.4
15 13.06 В 3 н/о н/о +16.1 +5.7 50 +16 +16 1010.3 984.7
18 13.06 ЮВ 2 н/о н/о +18.2 +5.9 44 +19 +19 1010.5 985.1
21 13.06 Ю 5 н/о н/о +21.3 +5.2 35 +22 +22 комфорт 1010.5 985.3 +14.4
00 14.06 ЮЗ 6
{10}
н/о н/о +25.0 +2.5 23 +24 +24 комфорт 1010.3 985.4
03 14.06 З 3 н/о н/о +25.4 -4.5 14 +23 +23 комфорт 1010.7 985.8
12 14.06 В 3 н/о н/о +20.1 +3.0 32 +21 +21 комфорт 1013.4 988.0
15 14.06 СВ 3 н/о н/о +16.5 +3.4 42 +16 +16 1014.7 989.0
18 14.06 СВ 1 н/о н/о +21.0 +3.9 32 +23 +23 комфорт 1015.3 989.9
21 14.06 Ю 3 н/о н/о +23.0 +3.7 28 +23 +23 комфорт 1015.8 990.6 +15.8
00 15.06 ЮЗ 4
{10}
н/о н/о +25.9 +3.1 23 +25 +25 комфорт 1015.6 990.6
03 15.06 Ю 3 н/о н/о +26.8 -0.8 16 +25 +25 комфорт 1015.4 990.5
06 15.06 З 1 н/о н/о +27.9 -3.2 13 +25 +25 комфорт 1015.2 990.3
09 15.06 З 2 н/о н/о +24.1 +3.8 27 +24 +24 комфорт 1015.6 990.5 +27.7
12 15.06 СВ 2 н/о н/о +19.6 +8.0 47 +21 +21 комфорт 1016.5 991.0
15 15.06 СВ 1 н/о н/о +17.3 +6.9 50 +18 +18 1016.8 991.1
18 15.06 В 1 н/о н/о +21.9 +5.0 33 +22 +22 комфорт 1016.3 991.0
21 15.06 Ю 2 н/о н/о +24.0 +2.7 25 +23 +23 комфорт 1015.7 990.6 +17.1
03 16.06 Ю 3 н/о н/о +27.7 -1.4 15 +25 +25 комфорт 1013.6 988.9
09 16.06 СВ 2 н/о н/о +25.9 +3.8 24 +25 +25 комфорт 1012.8 987.9 +28.3
12 16.06 СВ 2 н/о н/о +20.4 +6.4 40 +22 +22 комфорт 1013.8 988.4
15 16.06 СВ 3 н/о н/о +18.3 +7.7 50 +19 +19 1013.9 988.4
18 16.06 ЮЗ 1 н/о н/о +18.2 +10.2 60 +20 +20 1014.6 989.1
21 16.06 ЮЗ 2 н/о н/о +22.5 +8.9 42 +24 +24 комфорт 1014.3 989.1 +17.4
00 17.06 ЮЗ 2 н/о н/о +26.3 +4.6 25 +25 +25 комфорт 1013.7
06 17.06 СВ 7-10
{12}
н/о н/о +25.4 +2.3 22 +24 +24 комфорт 1013.1 988.2
09 17.06 СВ 6
{11}
н/о н/о +21.7 +2.3 28 +22 +22 комфорт 1014.0 988.7 +28.1
12 17.06 СВ 4
{11}
н/о н/о +17.4 +5.9 47 +17 +17 1014.5 988.9
15 17.06 СВ 4 н/о н/о +15.1 +6.6 57 +14 +14 1014.4 988.5
18 17.06 В 5 н/о н/о +15.0 +5.3 52 +14 +14 1014.3 988.4
12 18.06 СВ 4 н/о н/о +15.2 +6.6 56 +14 +14 1011.6 985.8
15 18.06 В 4 н/о н/о +13.3 +7.0 66 +12 +12 1011.7 985.8
21 18.06 ЮВ 1 н/о н/о +20.7 +3.2 31 +22 +22 комфорт 1011.2 986.0 +13.1
06 19.06 СВ 5 н/о н/о +21.1 +5.9 37 +22 +22 комфорт 1011.7 986.5
09 19.06 СВ 6
{10}
н/о н/о +16.8 +9.0 60 +16 +16 1013.1 987.5 +21.9
12 19.06 С 3 н/о н/о +12.8 +7.6 71 +12 +12 1014.6 988.6
21 19.06 СВ 4
{11}
н/о н/о +15.4 +5.5 52 +15 +15 1015.4 989.6 +10.7

 

Местоположение метеостанции Комсомольская (Чукотка, Россия): широта 69.13 долгота 172.82 высота над уровнем моря 219 м.

В архиве по умолчанию представлена погода в Комсомольской за последнюю неделю. Архивные данные за месяц целиком и за предыдущие месяцы, начиная с января 2011 года, Вы можете получить, выбрав интересующий диапазон дат из раскрывающегося списка и нажав кнопку "Ввод!".


*Определитесь, кто Вы:
робот инопланетянин человек

Внимание! Время в таблицах - всемирное. Для получения местного времени необходимо прибавить поправку, которая равна 12 ч.

Смотрите также архив погоды в соседних городах и на ближайших метеорологических станциях:

Погода в Паляваам-Глубокой (Чукотка, Россия) (50 км)
Погода в Майской (Чукотка, Россия) (68 км)
Погода в Чауне (Чукотка, Россия) (89 км)
Погода на 21 км (Чукотка, Россия) (96 км)
Погода в Певеке (Чукотка, Россия) (120 км)
Погода в Валькаркае (Чукотка, Россия) (129 км)
Погода на Мысе Биллингс (Чукотка, Россия) (140 км)
Погода на Айон Острове (Чукотка, Россия) (211 км)
Погода в Раучуе (Чукотка, Россия) (252 км)
Погода в Билибино (Чукотка, Россия) (287 км)

Пояснения к столбцам:

Ветер - указаны скорость ветра в м/с - средняя за 10 мин, порывы в срок и между сроками (в фигурных скобках) и направление, откуда дует ветер: С - северный, СВ - северо-восточный, В - восточный, ЮВ - юго-восточный, Ю - южный, ЮЗ - юго-западный, З - западный, СЗ - северо-западный.
Видимость - горизонтальная дальность видимости в метрах или километрах. При видимости от 1 до 10 км при отсутствии осадков обычно наблюдается дымка, при ухудшении видимости до 1 км и менее - туман. В сухую погоду видимость может ухудшаться дымом, пылью или мглою.
Явления - указаны атмосферные явления, наблюдавшиеся в срок или в последний час перед сроком; фигурными скобками обозначены явления, наблюдавшиеся между сроками (за 1-3 часа до срока); квадратными скобками обозначены град или гололедные отложения с указанием их диаметра в мм.
Облачность - указаны через наклонную черту общая и нижняя облачность в баллах и высота нижней границы облаков в метрах; квадратными скобками обозначены формы облаков: Ci - перистые, Cs - перисто-слоистые, Cc - перисто-кучевые, Ac - высококучевые, As - высокослоистые, Sc - слоисто-кучевые, Ns - слоисто-дождевые, Cu - кучевые, Cb - кучево-дождевые. Подробнее классификацию облаков см. в Атласе облаков (PDF).
T - Температура воздуха - температура, измеренная на высоте 2 м над землей.
Td - Температура точки росы - температура, при понижении до которой содержащийся в воздухе водяной пар достигнет насыщения.
f - Относительная влажность воздуха - влажноcть воздуха, измеренная на высоте 2 м над землей.
Te - Эффективная температура - температура, которую ощущает одетый по сезону человек в тени. Характеристика душности погоды. При расчете учитывается влияние влажности воздуха и скорости ветра на теплоощущения человека.
Tes - Эффективная температура на солнце - температура, которую ощущает человек, с поправкой на солнечный нагрев. Характеристика знойности погоды. Зависит от высоты солнца над горизонтом, облачности и скорости ветра. Ночью, в пасмурную погоду, а также при ветре 12 м/с и более поправка равна нулю.
P - Атмосферное давление - приведенное к уровню моря атмосферное давление.
Po - Атмосферное давление - измеренное на уровне метеостанции атмосферное давление.
Tmin - Минимальная температура - минимум температуры воздуха на высоте 2 м над землей.
Tmax - Максимальная температура - максимум температуры воздуха на высоте 2 м над землей.
R - Количество осадков - Количество выпавших осадков за период времени, мм. При наведении курсора мыши на число - период времени, за который выпало указанное количество осадков.
R24 - Количество осадков - Количество выпавших осадков за 24 часа, мм.
S - Снежный покров - Высота снежного покрова, см. При наведении курсора мыши на число - состояние снежного покрова и степень покрытия местности в баллах.